Showing default

SUPERVIEW NEO-1 03, 63125

Orbit data source: Space-Track

SUPERVIEW NEO-1 03, 63125 is a payload satellite owned by Siwei (CN) in SSO that was launched on Thu, 27 Feb 2025 UTC via a CHANG ZHENG 2C launch vehicle from the Jiuquan Satellite Launch Center, China (JSC). Payload-class satellites include a variety of spacecraft equipped with specific instruments for various scientific and technological missions. These include communications satellites like Starlink; space stations such as the ISS; scientific satellites like the Hubble; Earth observation satellites from companies like Planet Labs, Umbra, and HawkEye 360; GPS; miniature CubeSats for education and research; and military/defense satellites.

Loading next visibility...
Identifier
63125, 2025-040A
Orbit
SSO
Country
Flag of CNCN / PRC
Related business
Manufacturer
SAST
Mission
Operational Commercial Imaging
Bus & Motor
SIWEI, Unknown motor
Mass
540 kg wet, ~500 kg dry
Launch date (UTC)
2025-02-27 (1 year ago)
Launch vehicle
CHANG ZHENG 2C
Launch site
Jiuquan Satellite Launch Center, China (JSC)
Object type
Payload
Rocket body
Debris
Shape & HBR
Box, 4.7 m
Radar Cross Section
0.375 m², Large (>1 m²)

Expand to show TLE details & history
Last TLE update: 11 hours ago

TLE from 11 hours ago
0 SUPERVIEW NEO-1 03
1 63125U 25040A   26164.65050819  .00009109  00000-0  40650-3 0  9998
2 63125  97.3500 279.1509 0001277 129.3529 230.7821 15.21599783 71645
Epoch: 2026-06-13T15:36Z
TLE epoch observation values (Epoch: 2026-06-13T15:36:43.907Z)
Latitude
0.00002°
Longitude
143.0054°
Altitude
504.664 km
Speed
7.612 km/s
True Right ascension
18h 36m 36s
True Declination
0° 00' 00"
Sunlit
Object was in full shadow at epoch
Visualization orbit readout
Latitude
Unknown
Longitude
Unknown
Altitude
Unknown
Speed
Unknown
Apparent Right ascension
Unknown
Apparent Declination
Unknown
Sunlit
N/A
Visualization observer readout
Local Sidereal Time
13:17:00
Azimuth
Unknown
Elevation
Unknown
Doppler factor
Unknown
Orbital elements
Apogee altitude
498.854 km
Perigee altitude
497.098 km
Semi-major axis
6,876.113 km
Eccentricity
0.00013
Inclination
97.35°
RAAN
279.1509°
Arg. of periapsis
129.3529°
True anomaly
230.77076°
Mean anomaly
230.7821°
Eccentric anomaly
230.77643°
Mean motion
3.80652 °/min
Orbital period
94.57 mins
BSTAR
0.0004065
Loading maneuver chart data...
Computing Atmospheric mass density...
Loading historical data...
Loading historical data...
Loading historical data...
Loading historical data...
Loading historical data...
Loading historical data...
Loading historical data...
Other satellites on launch #40 in the year 2025 (2025-02-27 UTC)

Documentation

Showing up to 5 results
|